Hourly Data Report for July 17, 2021

MANIWAKI AIRPORT
QUEBEC
Current Station Operator: ECCC - MSC

46°16'29.000" N
75°59'31.000" W
199.70 m
7034482
71721
WMJ

Download Data

Hourly Data (July 2021)
Hourly Data Report for July 17, 2021
TIME
LST
Temp Definition
°C
Dew Point Definition
°C
Rel Hum Definition
%
Precip. Amount Definition
mm

Wind Dir Definition
10's deg

Wind Spd Definition
km/h
Visibility Definition
km
Stn Press Definition
kPa
Hmdx Definition


Wind Chill Definition


Weather Definition


00:00 14.9 14.6 98 0.0   0   99.46     LegendNANA
01:00 13.8 13.4 98 0.0 18 1   99.48     LegendNANA
02:00 13.7 13.5 98 0.0 0 1   99.47     LegendNANA
03:00 13.7 13.6 99 0.0   0   99.48     LegendNANA
04:00 12.9 12.6 98 0.0   0   99.49     LegendNANA
05:00 13.6 13.4 98 0.0   0   99.53     LegendNANA
06:00 15.3 15.1 99 0.0   0   99.56     LegendNANA
07:00 17.6 16.4 93 0.0 30 1   99.61     LegendNANA
08:00 19.3 15.9 80 0.0 33 2   99.61     LegendNANA
09:00 20.8 16.5 76 0.0 22 2   99.58 26   LegendNANA
10:00 22.4 17.2 73 0.0 21 2   99.59 28   LegendNANA
11:00 23.9 17.8 69 0.0 24 2   99.61 30   LegendNANA
12:00 25.2 17.3 62 0.0 16 4   99.59 31   LegendNANA
13:00 26.5 16.0 53 0.0 25 3   99.55 31   LegendNANA
14:00 26.2 17.5 59 0.0 32 6   99.53 32   LegendNANA
15:00 26.7 14.0 45 0.0 4 4   99.50 30   LegendNANA
16:00 26.9 14.9 48 0.0 34 4   99.48 31   LegendNANA
17:00 26.6 13.8 45 0.0 27 2   99.43 30   LegendNANA
18:00 24.2 19.1 73 0.0   0   99.41 31   LegendNANA
19:00 22.1 20.1 88 0.0   0   99.43 30   LegendNANA
20:00 20.8 19.6 93 0.0   0   99.47 28   LegendNANA
21:00 20.2 19.6 96 0.0 22 2   99.53 27   LegendNANA
22:00 19.1 18.5 97 0.0 14 1   99.53     LegendNANA
23:00 17.9 17.4 97 0.0 36 1   99.49     LegendNANA

Notes on Data Quality.

Legend

  • E = Estimated
  • M = Missing
  • NA = Not Available*
  • [empty] = Indicates an unobserved value
Date modified: